Terminal Aerodrome Forecast
Issued by NWS Omaha/Valley, NE

Home | Current Version | Previous Version | Graphics & Text | Print | Product List | Glossary On
Versions: 1 2 3 4 5 6 7 8 9 10 11 12 13 14 15 16 17 18 19 20 21 22 23 24 25 26 27 28 29 30 31 32 33 34 35
617
FTUS43 KOAX 111120
TAFOFK
TAF
KOFK 111120Z 1112/1212 08005KT P6SM OVC009
      TEMPO 1112/1116 5SM BR OVC007
     FM111600 16010KT 6SM BR OVC007
     FM112000 18012KT 6SM BR OVC007
     FM120200 VRB06KT P6SM OVC010
     FM120600 34011KT P6SM OVC025=

USA.gov is the U.S. government's official web portal to all federal, state and local government web resources and services.